Dewpoint
44 43 42 41 41 42 41 38 38 39 41 44 48 49 48 46 45 47 50 54 54 51 51 56 58 55 54 51 50 50 51 53 53 54 55 55 56 57 58 60 64 64 64
43 41 40 39 39 39 39 37 36 38 40 45 45 42 40 40 38 38 38 45 52 52 51 53 54 53 52 50 48 48 49 50 51 52 52 52 53 54 55 57 59 63 63
41 39 38 37 38 37 36 37 37 39 41 40 38 36 34 33 32 33 33 33 36 48 51 51 50 51 49 48 47 46 46 47 48 49 49 50 50 52 54 55 56 59 62
40 37 36 36 37 37 36 36 37 39 38 37 34 34 33 32 31 31 30 32 34 35 46 47 47 47 46 46 45 45 45 46 46 46 47 48 48 49 50 53 55 55 58
39 36 36 36 37 36 36 36 36 36 34 33 31 32 32 31 32 28 30 31 33 33 36 45 43 43 43 43 43 44 44 44 45 45 45 46 46 47 48 48 51 53 55
38 36 36 36 36 35 34 34 34 35 35 32 28 30 31 32 31 30 30 29 30 33 34 36 37 37 39 40 41 43 43 43 43 44 44 44 44 45 46 46 48 49 52
37 36 36 35 36 34 34 34 33 33 33 34 32 31 31 31 30 30 30 29 30 31 32 32 35 35 33 39 41 41 41 43 43 43 42 42 42 43 44 45 45 46 47
36 35 35 34 34 34 33 32 32 31 32 32 32 32 29 30 30 29 30 28 28 30 30 30 30 30 31 35 36 38 39 39 41 41 41 41 41 41 42 43 44 44 45
36 35 35 35 35 34 33 32 31 30 29 31 31 29 26 28 27 29 29 28 28 29 29 30 30 30 31 33 34 35 34 36 38 40 40 40 40 40 40 41 41 42 43
37 36 35 35 35 35 34 34 32 31 30 28 30 30 29 28 21 19 26 28 29 27 29 29 30 30 30 31 34 34 33 33 36 38 39 39 39 39 39 40 40 40 41
36 35 35 34 34 35 33 33 32 31 31 30 29 29 28 28 27 23 19 24 25 27 28 28 29 30 29 29 31 33 31 30 34 37 37 38 38 39 39 39 39 40 40
35 35 34 33 33 34 33 32 32 31 31 30 30 30 28 26 26 24 23 23 24 24 27 27 28 29 29 29 27 32 29 29 33 35 36 36 36 38 38 39 39 39 39
35 34 33 33 32 33 34 33 32 31 30 30 29 29 30 29 29 28 25 24 22 24 25 27 27 27 24 29 27 30 27 28 33 33 35 35 34 36 37 36 37 38 38
35 35 33 32 32 32 33 32 31 31 30 30 29 29 29 29 29 28 26 23 21 23 23 22 26 27 25 27 27 29 24 28 31 32 34 33 32 33 34 35 36 37 37
34 34 33 32 32 31 32 32 31 30 30 30 29 29 29 29 29 28 27 26 23 18 19 21 21 24 24 26 26 25 23 28 29 31 32 31 31 31 33 33 34 34 35
34 33 32 32 31 30 31 31 29 29 29 30 29 29 28 29 28 27 27 27 25 22 18 22 21 23 23 22 24 23 23 27 28 30 31 30 30 29 31 32 32 32 33
34 33 32 32 31 29 30 30 29 29 29 29 29 28 28 28 27 26 27 25 23 23 20 20 22 22 21 22 22 22 24 23 25 29 29 28 28 28 30 31 31 31 31
34 33 32 31 31 30 29 29 28 28 28 27 27 28 28 27 26 26 26 25 23 22 21 18 20 21 21 21 21 21 21 20 25 24 27 26 26 28 30 30 31 31 29
34 32 32 31 31 30 29 28 28 28 28 27 27 26 26 26 25 25 25 25 22 21 21 21 20 22 21 21 19 21 20 21 20 24 24 24 26 27 28 29 30 30 28
36 33 32 31 32 30 28 28 28 27 26 25 26 25 24 25 24 25 25 24 22 21 20 21 21 20 20 18 20 18 19 20 20 19 21 22 25 26 27 29 30 28 27
34 32 34 33 31 29 27 27 27 26 23 22 23 22 24 26 28 27 24 22 21 21 21 21 20 19 18 18 18 20 19 20 19 20 19 19 22 22 26 28 25 25 25
33 33 33 33 31 27 30 31 27 23 20 19 19 19 21 27 30 32 28 25 23 21 20 20 20 17 16 18 20 20 21 19 18 21 21 20 20 21 23 20 21 23 25
34 34 33 33 31 29 32 33 31 22 20 19 19 18 20 22 29 27 28 27 26 24 23 20 19 18 18 18 20 21 20 20 18 18 18 15 17 19 18 16 22 23 25
34 34 35 32 31 27 32 33 32 22 21 21 19 19 20 23 25 23 23 22 21 21 22 21 21 21 20 20 22 21 21 21 19 17 15 15 15 16 17 18 21 23 23
34 34 33 31 28 26 31 33 32 22 20 20 20 20 20 21 24 26 23 23 21 22 23 24 23 24 24 24 24 23 21 19 17 17 17 17 18 18 16 17 17 21 22
32 31 29 28 28 26 31 33 31 23 21 20 19 19 26 21 24 26 25 23 22 23 22 20 20 22 24 24 24 24 22 19 16 16 18 16 16 17 15 16 18 19 20
Lifted_Index
9 10 11 12 12 13 13 12 11 10 9 9 9 9 9 9 9 10 10 9 9 8 8 7 6 7 8 9 11 11 11 9 8 7 5 4 2 2 1 1 1 0 -0
10 11 12 13 14 14 14 13 13 11 9 9 9 9 9 10 10 10 10 10 10 9 8 7 7 8 9 10 11 12 11 11 10 9 7 5 4 3 2 1 1 0 0
12 13 14 15 15 16 16 15 14 12 10 9 9 9 9 10 10 11 11 11 11 10 9 9 9 10 10 11 12 12 12 12 12 11 10 8 6 5 4 2 1 1 1
15 15 15 16 16 17 16 16 15 13 11 10 9 9 10 11 11 11 12 12 12 12 11 11 12 12 12 12 13 13 13 13 13 13 12 11 9 8 6 4 2 1 1
16 16 16 16 17 17 16 16 14 13 12 11 10 10 11 11 12 12 13 13 14 14 13 14 14 14 14 14 14 14 14 14 14 14 13 13 12 10 8 6 4 3 3
16 16 16 16 17 17 16 15 15 14 13 12 12 11 11 12 13 13 14 15 15 16 16 16 16 16 16 16 15 15 15 14 14 14 14 14 14 13 12 10 7 6 5
16 16 17 17 17 17 17 16 15 14 14 13 13 12 12 12 13 14 15 16 17 18 18 18 18 18 18 17 16 16 16 15 15 15 15 15 15 14 14 13 11 9 8
16 16 17 17 17 17 17 17 16 15 15 14 13 13 12 12 13 14 16 17 18 19 19 18 18 19 18 18 18 18 17 17 16 15 15 15 15 15 15 14 14 13 12
14 15 16 17 17 17 17 17 17 17 16 15 14 14 13 13 13 14 16 18 19 19 19 19 19 19 19 19 19 19 19 19 17 16 16 16 15 15 15 15 15 15 14
12 13 15 16 17 17 17 18 18 18 17 17 16 16 15 15 14 14 15 17 19 19 19 19 19 20 20 20 20 20 20 20 19 17 17 16 16 16 16 16 16 15 15
11 12 14 16 17 18 18 18 18 18 18 17 17 17 16 16 15 14 14 16 18 19 19 19 20 20 20 21 20 20 21 21 20 18 17 17 17 17 16 16 16 16 16
10 11 12 15 17 18 18 18 18 18 18 17 17 16 16 15 15 14 14 14 16 18 19 19 20 20 21 21 21 21 21 21 20 19 18 18 18 18 17 17 17 17 17
10 10 11 14 17 18 19 19 19 19 18 18 17 17 16 16 16 15 14 14 14 16 18 19 20 20 21 21 22 21 21 21 21 20 19 19 19 19 18 18 18 18 18
9 10 11 13 16 18 19 20 19 19 19 18 18 17 17 17 17 16 15 14 14 14 15 17 19 20 21 21 22 22 22 21 21 20 20 20 20 20 19 19 19 18 18
8 9 10 12 15 18 19 20 19 19 19 19 18 17 17 17 18 17 17 16 14 13 14 16 18 20 21 21 22 22 22 21 21 21 20 20 20 20 20 19 19 19 19
8 9 10 11 13 16 19 19 19 19 19 18 18 18 18 18 18 18 18 17 16 14 14 16 18 20 20 21 21 22 22 22 22 21 21 21 21 21 20 20 20 20 20
7 8 10 11 13 15 18 19 19 19 19 18 18 17 17 18 18 18 18 18 17 16 15 16 18 19 20 20 21 21 22 22 22 22 21 21 21 21 21 20 20 20 20
7 8 9 10 12 15 17 18 19 18 18 17 17 17 17 17 17 18 18 17 17 17 17 16 17 18 19 20 20 21 21 22 22 22 22 22 22 21 21 21 20 21 21
6 7 9 10 11 13 16 17 17 17 17 17 17 17 17 17 17 17 17 17 17 18 17 17 17 18 19 19 20 20 20 21 22 22 22 22 22 22 22 21 21 21 21
5 6 8 9 9 11 14 15 16 16 17 17 17 17 16 16 17 17 17 17 17 17 18 17 17 17 18 18 19 19 19 20 21 22 22 22 22 22 22 22 22 22 22
5 6 7 7 8 9 12 13 15 16 16 17 16 16 16 17 17 18 17 17 17 17 17 17 17 17 17 18 18 19 19 19 20 21 22 22 22 23 23 23 23 23 23
4 5 6 6 6 8 11 13 14 15 16 16 16 16 16 17 17 18 18 18 18 18 18 17 17 17 17 18 19 20 19 18 19 21 21 21 22 23 23 23 23 23 23
4 4 5 5 5 7 11 13 14 15 15 16 16 16 16 17 17 18 18 18 18 19 19 18 18 18 19 20 21 21 20 20 20 22 22 21 22 23 23 23 23 24 24
3 4 4 4 5 7 11 13 14 15 15 15 15 16 16 17 17 17 18 18 18 19 19 20 20 20 21 22 22 22 22 21 21 23 23 22 22 23 23 23 23 23 23
3 3 3 3 5 7 11 13 14 14 14 14 15 16 16 17 17 17 17 17 18 18 20 20 21 21 22 23 24 24 23 22 22 22 23 23 23 23 23 23 23 23 23
2 2 2 3 5 8 11 13 14 14 13 14 15 16 16 16 17 17 17 17 17 18 19 20 21 21 22 23 24 24 24 23 22 22 23 24 24 24 24 23 23 23 23